THOR 5                  
1 32487U 08006A   19259.76299161 -.00000015  00000-0  00000+0 0  9991
2 32487   0.0268 239.7642 0002536 299.7815  89.8006  1.00272082 42450
BREEZE-M R/B            
1 32488U 08006B   19258.78489172 -.00000147  00000-0 -20568-2 0  9997
2 32488  48.6879  50.2293 7098221 192.6900 134.9659  2.21024304 93610
BREEZE-M R/B            
1 37381U 08006C   19258.61914347 -.00000173  00000-0  00000-0 0  9998
2 37381   8.6708  37.3433 0260560 251.0058 314.6140  0.95122892 39487